Regional Weather Roundup
Issued by NWS Cleveland, OH

Home | Current Version | Previous Version | Graphics & Text | Print | Product List | Glossary On
Versions: 1 2 3 4 5 6 7 8 9 10 11 12 13 14 15 16 17 18 19 20 21 22 23 24 25 26 27 28 29 30 31 32 33 34 35 36 37 38 39 40 41 42 43 44 45 46 47 48 49 50
000
ASUS41 KCLE 261302
RWRCLE
OHIO REGIONAL WEATHER ROUNDUP
NATIONAL WEATHER SERVICE CLEVELAND, OH
800 AM EST MON JAN 26 2015

NOTE: "FAIR" INDICATES FEW OR NO CLOUDS BELOW 12,000 FEET WITH NO
SIGNIFICANT WEATHER AND/OR OBSTRUCTIONS TO VISIBILITY.

OHZ001>008-015>018-024>027-034-035-043-044-261400-
   NORTHWEST OHIO

CITY           SKY/WX    TMP DP  RH WIND       PRES   REMARKS
DEFIANCE       PTCLDY     7   3  84 NW8       29.94R WCI  -6
FINDLAY        CLOUDY    14   7  73 N13       29.87R WCI   0
TOLEDO EXPRESS CLEAR      9   3  77 N6        29.91R WCI  -1
TOLEDO EXEC    MOCLDY    13   5  70 N8        29.92R WCI   2
LIMA           MOCLDY    15   8  73 N8        29.86R WCI   4
$$

OHZ009>014-019>023-028>033-038-089-261400-
   NORTHEAST OHIO

CITY           SKY/WX    TMP DP  RH WIND       PRES   REMARKS
CLE-HOPKINS    LGT SNOW  20  16  84 NE14      29.85S BLWGSNOWWCI   7
CLE-LAKEFRONT  LGT SNOW  20  16  84 NE13      29.83S FOG     WCI   7
CUY CO. ARPT   LGT SNOW  19  18  93 NE16      29.82S WCI   5
LORAIN-ELYRIA  FLURRIES  19  16  88 NE12      29.83S WCI   7
ASHTABULA      LGT SNOW  17  13  84 NE9       29.82S FOG     WCI   6
AKRON-CANTON   LGT SNOW  20  15  81 N13       29.75S VSB 1   WCI   7
WOOSTER        LGT SNOW  18  15  88 N12       29.78R FOG     WCI   5
MANSFIELD      LGT SNOW  18  15  88 N12       29.77S FOG     WCI   5
YOUNGSTOWN     LGT SNOW  18  15  88 N10       29.76R VSB 1   WCI   6
$$

OHZ042-051>053-060>062-070>072-077>081-261400-
  SOUTHWEST OHIO

CITY           SKY/WX    TMP DP  RH WIND       PRES   REMARKS
CINC-COVINGTON CLOUDY    21  16  81 NW17      29.86R WCI   7
CINC-LUNKEN    CLOUDY    20  15  81 N14       29.90R WCI   7
HAMILTON       CLOUDY    20  16  84 NW9       29.89R WCI   9
DAYTON         CLOUDY    15  11  83 N13       29.85R WCI   1
WRIGHT-PAT AFB CLOUDY    18  13  82 N8        29.85R WCI   7
DAYTON GENERAL CLOUDY    18  14  84 N12       29.83R WCI   5
WILMINGTON     CLOUDY    20  15  81 N14       29.80R WCI   7
$$

OHZ036-037-039>041-045>050-054>059-063>069-073>076-082>088-261400-
  CENTRAL AND SOUTHEAST OHIO

CITY           SKY/WX    TMP DP  RH WIND       PRES   REMARKS
COLUMBUS       LGT SNOW  20  17  88 N12       29.78R FOG     WCI   8
OSU AIRPORT    LGT SNOW  19  15  84 N15       29.79R FOG     WCI   5
BOLTON FIELD   NOT AVBL
RICKENBACK AFB NOT AVBL
NEWARK         LGT SNOW  23  19  85 N8        29.76R FOG     WCI  14
MARION         PTCLDY    17  13  84 N15       29.81R WCI   2
LANCASTER      LGT SNOW  23  20  88 N8        29.76S FOG     WCI  14
ZANESVILLE     LGT SNOW  21  18  88 N10       29.74R FOG     WCI  10
NEW PHILLY     LGT SNOW  21  17  84 N5        29.76R VSB 1   WCI  15
$$


USA.gov is the U.S. government's official web portal to all federal, state and local government web resources and services.